Location: ????
(30.1475°N, 31.1342°E)
Time: 18:02:28
(UTC+00:00)

Meteor 1-14 Rocket - Pass Details

Date: 30 March 2023
Orbit: 834 x 918 km, 81.3° (Epoch: 03 June)

Event Time Altitude Azimuth Distance (km) Brightness Sun altitude
Rises 02:03:13 0° 348° (NNW) 3,389 7.4 -22.9°
Reaches altitude 10° 02:05:38 10° 345° (NNW) 2,456 6.6 -22.4°
Maximum altitude 02:11:07 64° 265° (W) 932 4.1 -21.3°
Drops below altitude 10° 02:16:41 10° 185° (S) 2,485 6.4 -20.2°
Sets 02:19:08 0° 182° (S) 3,431 7.2 -19.7°
